Year,Month,Day,Hour,Minute,Value (Times are PST for temperature in C)
2023,05,14,08,33,21.70
2023,05,14,08,34,21.70
2023,05,14,08,35,21.80
2023,05,14,08,36,21.80
2023,05,14,08,37,21.80
2023,05,14,08,38,21.80
2023,05,14,08,39,21.80
2023,05,14,08,40,21.90
2023,05,14,08,41,21.90
2023,05,14,08,42,21.90
2023,05,14,08,43,21.90
2023,05,14,08,44,21.90
2023,05,14,08,45,21.90
2023,05,14,08,46,22.00
2023,05,14,08,47,22.00
2023,05,14,08,48,22.00
2023,05,14,08,49,22.10
2023,05,14,08,50,22.10
2023,05,14,08,51,22.10
2023,05,14,08,52,22.10
2023,05,14,08,53,22.20
2023,05,14,08,54,22.20
2023,05,14,08,55,22.20
2023,05,14,08,56,22.30
2023,05,14,08,57,22.30
2023,05,14,08,58,22.30
2023,05,14,08,59,22.40
2023,05,14,09,00,22.40
2023,05,14,09,01,22.40
2023,05,14,09,02,22.40
2023,05,14,09,03,22.40
2023,05,14,09,04,22.50
2023,05,14,09,05,22.50
2023,05,14,09,06,22.50
2023,05,14,09,07,22.50
2023,05,14,09,08,22.50
2023,05,14,09,09,22.50
2023,05,14,09,10,22.50
2023,05,14,09,11,22.50
2023,05,14,09,12,22.50
2023,05,14,09,13,22.60
2023,05,14,09,14,22.60
2023,05,14,09,15,22.60
2023,05,14,09,16,22.70
2023,05,14,09,17,22.70
2023,05,14,09,18,22.70
2023,05,14,09,19,22.80
2023,05,14,09,20,22.90
2023,05,14,09,21,22.90
2023,05,14,09,22,23.00
2023,05,14,09,23,23.10
2023,05,14,09,24,23.20
2023,05,14,09,25,23.20
2023,05,14,09,26,23.30
2023,05,14,09,27,23.40
2023,05,14,09,28,23.50
2023,05,14,09,29,23.60
2023,05,14,09,30,23.60
2023,05,14,09,31,23.60
2023,05,14,09,32,23.60
2023,05,14,09,33,23.70
2023,05,14,09,34,23.70
2023,05,14,09,35,23.80
2023,05,14,09,36,23.80
2023,05,14,09,37,23.80
2023,05,14,09,38,23.80
2023,05,14,09,39,23.80
2023,05,14,09,40,23.90
2023,05,14,09,41,23.90
2023,05,14,09,42,24.00
2023,05,14,09,43,24.00
2023,05,14,09,44,24.10
2023,05,14,09,45,24.10
2023,05,14,09,46,24.20
2023,05,14,09,47,24.20
2023,05,14,09,48,24.20
2023,05,14,09,49,24.20
2023,05,14,09,50,24.20
2023,05,14,09,51,24.20
2023,05,14,09,52,24.30
2023,05,14,09,53,24.30
2023,05,14,09,54,24.30
2023,05,14,09,55,24.40
2023,05,14,09,56,24.40
2023,05,14,09,57,24.50
2023,05,14,09,58,24.50
2023,05,14,09,59,24.50
2023,05,14,10,00,24.50
2023,05,14,10,01,24.50
2023,05,14,10,02,24.50
2023,05,14,10,03,24.40
2023,05,14,10,04,24.40
2023,05,14,10,05,24.40
2023,05,14,10,06,24.50
2023,05,14,10,07,24.50
2023,05,14,10,08,24.60
2023,05,14,10,09,24.60
2023,05,14,10,10,24.70
2023,05,14,10,11,24.70
2023,05,14,10,12,24.80
2023,05,14,10,13,24.80
2023,05,14,10,14,24.70
2023,05,14,10,15,24.80
2023,05,14,10,16,24.80
2023,05,14,10,17,24.80
2023,05,14,10,18,24.80
2023,05,14,10,19,24.90
2023,05,14,10,20,24.90
2023,05,14,10,21,25.00
2023,05,14,10,22,25.00
2023,05,14,10,23,25.00
2023,05,14,10,24,25.10
2023,05,14,10,25,25.10
2023,05,14,10,26,25.20
2023,05,14,10,27,25.20
2023,05,14,10,28,25.30
2023,05,14,10,29,25.30
2023,05,14,10,30,25.40
2023,05,14,10,31,25.40
2023,05,14,10,32,25.50
2023,05,14,10,33,25.50
2023,05,14,10,34,25.60
2023,05,14,10,35,25.60
2023,05,14,10,36,25.70
2023,05,14,10,37,25.80
2023,05,14,10,38,25.80
2023,05,14,10,39,25.80
2023,05,14,10,40,25.80
2023,05,14,10,41,25.80
2023,05,14,10,42,25.80
2023,05,14,10,43,25.80
2023,05,14,10,44,25.90
2023,05,14,10,45,25.90
2023,05,14,10,46,26.00
2023,05,14,10,47,26.00
2023,05,14,10,48,26.00
2023,05,14,10,49,26.00
2023,05,14,10,50,26.10
2023,05,14,10,51,26.20
2023,05,14,10,52,26.30
2023,05,14,10,53,26.30
2023,05,14,10,54,26.30
2023,05,14,10,55,26.30
2023,05,14,10,56,26.20
2023,05,14,10,57,26.20
2023,05,14,10,58,26.20
2023,05,14,10,59,26.20
2023,05,14,11,00,26.30
2023,05,14,11,01,26.30
2023,05,14,11,02,26.30
2023,05,14,11,03,26.30
2023,05,14,11,04,26.30
2023,05,14,11,05,26.30
2023,05,14,11,06,26.30
2023,05,14,11,07,26.30
2023,05,14,11,08,26.30
2023,05,14,11,09,26.30
2023,05,14,11,10,26.30
2023,05,14,11,11,26.30
2023,05,14,11,12,26.30
2023,05,14,11,13,26.30
2023,05,14,11,14,26.40
2023,05,14,11,15,26.40
2023,05,14,11,16,26.40
2023,05,14,11,17,26.40
2023,05,14,11,18,26.50
2023,05,14,11,19,26.50
2023,05,14,11,20,26.60
2023,05,14,11,21,26.60
2023,05,14,11,22,26.70
2023,05,14,11,23,26.80
2023,05,14,11,24,26.90
2023,05,14,11,25,26.90
2023,05,14,11,26,27.00
2023,05,14,11,27,27.00
2023,05,14,11,28,27.10
2023,05,14,11,29,27.10
2023,05,14,11,30,27.20
2023,05,14,11,31,27.20
2023,05,14,11,32,27.30
2023,05,14,11,33,27.30
2023,05,14,11,34,27.40
2023,05,14,11,35,27.40
2023,05,14,11,36,27.30
2023,05,14,11,37,27.30
2023,05,14,11,38,27.30
2023,05,14,11,39,27.20
2023,05,14,11,40,27.10
2023,05,14,11,41,27.00
2023,05,14,11,42,26.90
2023,05,14,11,43,26.90
2023,05,14,11,44,27.00
2023,05,14,11,45,27.00
2023,05,14,11,46,27.00
2023,05,14,11,47,27.00
2023,05,14,11,48,27.00
2023,05,14,11,49,27.10
2023,05,14,11,50,27.10
2023,05,14,11,51,27.10
2023,05,14,11,52,27.10
2023,05,14,11,53,27.20
2023,05,14,11,54,27.20
2023,05,14,11,55,27.20
2023,05,14,11,56,27.20
2023,05,14,11,57,27.30
2023,05,14,11,58,27.30
2023,05,14,11,59,27.30
2023,05,14,12,00,27.40
2023,05,14,12,01,27.40
2023,05,14,12,02,27.40
2023,05,14,12,03,27.40
2023,05,14,12,04,27.40
2023,05,14,12,05,27.40
2023,05,14,12,06,27.50
2023,05,14,12,07,27.50
2023,05,14,12,08,27.50
2023,05,14,12,09,27.60
2023,05,14,12,10,27.70
2023,05,14,12,11,27.80
2023,05,14,12,12,27.90
2023,05,14,12,13,28.10
2023,05,14,12,14,28.20
2023,05,14,12,15,28.30
2023,05,14,12,16,28.40
2023,05,14,12,17,28.40
2023,05,14,12,18,28.50
2023,05,14,12,19,28.60
2023,05,14,12,20,28.70
2023,05,14,12,21,28.80
2023,05,14,12,22,28.80
2023,05,14,12,23,28.90
2023,05,14,12,24,28.90
2023,05,14,12,25,29.00
2023,05,14,12,26,29.00
2023,05,14,12,27,29.00
2023,05,14,12,28,29.00
2023,05,14,12,29,29.00
2023,05,14,12,30,29.00
2023,05,14,12,31,29.00
2023,05,14,12,32,28.90
2023,05,14,12,33,28.90
2023,05,14,12,34,28.80
2023,05,14,12,35,28.80
2023,05,14,12,36,28.70
2023,05,14,12,37,28.70
2023,05,14,12,38,28.60
2023,05,14,12,39,28.60
2023,05,14,12,40,28.60
2023,05,14,12,41,28.50
2023,05,14,12,42,28.50
2023,05,14,12,43,28.60
2023,05,14,12,44,28.60
2023,05,14,12,45,28.60
2023,05,14,12,46,28.70
2023,05,14,12,47,28.80
2023,05,14,12,48,28.90
2023,05,14,12,49,29.00
2023,05,14,12,50,29.10
2023,05,14,12,51,29.20
2023,05,14,12,52,29.30
2023,05,14,12,53,29.30
2023,05,14,12,54,29.30
2023,05,14,12,55,29.40
2023,05,14,12,56,29.40
2023,05,14,12,57,29.30
2023,05,14,12,58,29.30
2023,05,14,12,59,29.30
2023,05,14,13,00,29.30
2023,05,14,13,01,29.30
2023,05,14,13,02,29.20
2023,05,14,13,03,29.20
2023,05,14,13,04,29.10
2023,05,14,13,05,29.10
2023,05,14,13,06,29.10
2023,05,14,13,07,29.10
2023,05,14,13,08,29.20
2023,05,14,13,09,29.30
2023,05,14,13,10,29.30
2023,05,14,13,11,29.40
2023,05,14,13,12,29.50
2023,05,14,13,13,29.50
2023,05,14,13,14,29.60
2023,05,14,13,15,29.70
2023,05,14,13,16,29.70
2023,05,14,13,17,29.70
2023,05,14,13,18,29.80
2023,05,14,13,19,29.80
2023,05,14,13,20,29.80
2023,05,14,13,21,29.80
2023,05,14,13,22,29.80
2023,05,14,13,23,29.80
2023,05,14,13,24,29.80
2023,05,14,13,25,29.80
2023,05,14,13,26,29.80
2023,05,14,13,27,29.80
2023,05,14,13,28,29.80
2023,05,14,13,29,29.80
2023,05,14,13,30,29.80
2023,05,14,13,31,29.90
2023,05,14,13,32,29.90
2023,05,14,13,33,29.90
2023,05,14,13,34,30.00
2023,05,14,13,35,30.10
2023,05,14,13,36,30.10
2023,05,14,13,37,30.10
2023,05,14,13,38,30.00
2023,05,14,13,39,30.00
2023,05,14,13,40,30.00
2023,05,14,13,41,29.90
2023,05,14,13,42,29.90
2023,05,14,13,43,29.90
2023,05,14,13,44,29.90
2023,05,14,13,45,29.90
2023,05,14,13,46,30.00
2023,05,14,13,47,30.10
2023,05,14,13,48,30.10
2023,05,14,13,49,30.10
2023,05,14,13,50,30.10
2023,05,14,13,51,30.10
2023,05,14,13,52,30.10
2023,05,14,13,53,30.10
2023,05,14,13,54,30.10
2023,05,14,13,55,30.10
2023,05,14,13,56,30.10
2023,05,14,13,57,30.00
2023,05,14,13,58,29.90
2023,05,14,13,59,29.90
2023,05,14,14,00,29.80
2023,05,14,14,01,29.70
2023,05,14,14,02,29.70
2023,05,14,14,03,29.70
2023,05,14,14,04,29.60
2023,05,14,14,05,29.50
2023,05,14,14,06,29.50
2023,05,14,14,07,29.50
2023,05,14,14,08,29.50
2023,05,14,14,09,29.60
2023,05,14,14,10,29.60
2023,05,14,14,11,29.70
2023,05,14,14,12,29.80
2023,05,14,14,13,29.90
2023,05,14,14,14,29.90
2023,05,14,14,15,29.90
2023,05,14,14,16,29.80
2023,05,14,14,17,29.80
2023,05,14,14,18,29.80
2023,05,14,14,19,29.80
2023,05,14,14,20,29.80
2023,05,14,14,21,29.80
2023,05,14,14,22,29.80
2023,05,14,14,23,29.90
2023,05,14,14,24,29.90
2023,05,14,14,25,29.90
2023,05,14,14,26,29.90
2023,05,14,14,27,29.90
2023,05,14,14,28,29.90
2023,05,14,14,29,29.80
2023,05,14,14,30,29.90
2023,05,14,14,31,29.90
2023,05,14,14,32,30.00
2023,05,14,14,33,30.10
2023,05,14,14,34,30.10
2023,05,14,14,35,30.20
2023,05,14,14,36,30.20
2023,05,14,14,37,30.20
2023,05,14,14,38,30.20
2023,05,14,14,39,30.20
2023,05,14,14,40,30.20
2023,05,14,14,41,30.20
2023,05,14,14,42,30.20
2023,05,14,14,43,30.20
2023,05,14,14,44,30.30
2023,05,14,14,45,30.30
2023,05,14,14,46,30.30
2023,05,14,14,47,30.30
2023,05,14,14,48,30.40
2023,05,14,14,49,30.40
2023,05,14,14,50,30.40
2023,05,14,14,51,30.50
2023,05,14,14,52,30.60
2023,05,14,14,53,30.60
2023,05,14,14,54,30.70
2023,05,14,14,55,30.80
2023,05,14,14,56,30.80
2023,05,14,14,57,30.80
2023,05,14,14,58,30.80
2023,05,14,14,59,30.80
2023,05,14,15,00,30.80
2023,05,14,15,01,30.80
2023,05,14,15,02,30.80
2023,05,14,15,03,30.80
2023,05,14,15,04,30.80
2023,05,14,15,05,30.80
2023,05,14,15,06,30.80
2023,05,14,15,07,30.80
2023,05,14,15,08,30.70
2023,05,14,15,09,30.70
2023,05,14,15,10,30.70
2023,05,14,15,11,30.70
2023,05,14,15,12,30.70
2023,05,14,15,13,30.70
2023,05,14,15,14,30.60
2023,05,14,15,15,30.60
2023,05,14,15,16,30.50
2023,05,14,15,17,30.50
2023,05,14,15,18,30.40
2023,05,14,15,19,30.50
2023,05,14,15,20,30.50
2023,05,14,15,21,30.60
2023,05,14,15,22,30.70
2023,05,14,15,23,30.80
2023,05,14,15,24,30.90
2023,05,14,15,25,31.00
2023,05,14,15,26,31.00
2023,05,14,15,27,31.10
2023,05,14,15,28,31.10
2023,05,14,15,29,31.10
2023,05,14,15,30,31.10
2023,05,14,15,31,31.10
2023,05,14,15,32,31.10
2023,05,14,15,33,31.10
2023,05,14,15,34,31.20
2023,05,14,15,35,31.10
2023,05,14,15,36,31.10
2023,05,14,15,37,31.10
2023,05,14,15,38,31.10
2023,05,14,15,39,31.00
2023,05,14,15,40,30.90
2023,05,14,15,41,30.80
2023,05,14,15,42,30.80
2023,05,14,15,43,30.80
2023,05,14,15,44,30.70
2023,05,14,15,45,30.60
2023,05,14,15,46,30.60
2023,05,14,15,47,30.60
2023,05,14,15,48,30.60
2023,05,14,15,49,30.70
2023,05,14,15,50,30.70
2023,05,14,15,51,30.70
2023,05,14,15,52,30.70
2023,05,14,15,53,30.80
2023,05,14,15,54,30.80
2023,05,14,15,55,30.80
2023,05,14,15,56,30.80
2023,05,14,15,57,30.70
2023,05,14,15,58,30.60
2023,05,14,15,59,30.60
2023,05,14,16,00,30.50
2023,05,14,16,01,30.40
2023,05,14,16,02,30.50
2023,05,14,16,03,30.50
2023,05,14,16,04,30.60
2023,05,14,16,05,30.60
2023,05,14,16,06,30.70
2023,05,14,16,07,30.80
2023,05,14,16,08,30.90
2023,05,14,16,09,30.90
2023,05,14,16,10,31.00
2023,05,14,16,11,31.10
2023,05,14,16,12,31.10
2023,05,14,16,13,31.10
2023,05,14,16,14,31.10
2023,05,14,16,15,31.10
2023,05,14,16,16,31.20
2023,05,14,16,17,31.20
2023,05,14,16,18,31.30
2023,05,14,16,19,31.30
2023,05,14,16,20,31.30
2023,05,14,16,21,31.30
2023,05,14,16,22,31.30
2023,05,14,16,23,31.20
2023,05,14,16,24,31.20
2023,05,14,16,25,31.20
2023,05,14,16,26,31.30
2023,05,14,16,27,31.30
2023,05,14,16,28,31.30
2023,05,14,16,29,31.40
2023,05,14,16,30,31.50
2023,05,14,16,31,31.60
2023,05,14,16,32,31.70
2023,05,14,16,33,31.70
2023,05,14,16,34,31.80
2023,05,14,16,35,31.80
2023,05,14,16,36,31.80
2023,05,14,16,37,31.80
2023,05,14,16,38,31.90
2023,05,14,16,39,31.90
2023,05,14,16,40,31.90
2023,05,14,16,41,31.90
2023,05,14,16,42,31.90
2023,05,14,16,43,31.90
2023,05,14,16,44,32.00
2023,05,14,16,45,31.90
2023,05,14,16,46,31.90
2023,05,14,16,47,31.90
2023,05,14,16,48,31.90
2023,05,14,16,49,31.90
2023,05,14,16,50,31.90
2023,05,14,16,51,32.00
2023,05,14,16,52,32.10
2023,05,14,16,53,32.10
2023,05,14,16,54,32.10
2023,05,14,16,55,32.20
2023,05,14,16,56,32.30
2023,05,14,16,57,32.40
2023,05,14,16,58,32.50
2023,05,14,16,59,32.50
2023,05,14,17,00,32.60
2023,05,14,17,01,32.60
2023,05,14,17,02,32.60
2023,05,14,17,03,32.60
2023,05,14,17,04,32.60
2023,05,14,17,05,32.60
2023,05,14,17,06,32.50
2023,05,14,17,07,32.50
2023,05,14,17,08,32.40
2023,05,14,17,09,32.30
2023,05,14,17,10,32.40
2023,05,14,17,11,32.40
2023,05,14,17,12,32.40
2023,05,14,17,13,32.40
2023,05,14,17,14,32.40
2023,05,14,17,15,32.30
2023,05,14,17,16,32.30
2023,05,14,17,17,32.30
2023,05,14,17,18,32.30
2023,05,14,17,19,32.30
2023,05,14,17,20,32.30
2023,05,14,17,21,32.20
2023,05,14,17,22,32.30
2023,05,14,17,23,32.20
2023,05,14,17,24,32.30
2023,05,14,17,25,32.30
2023,05,14,17,26,32.30
2023,05,14,17,27,32.30
2023,05,14,17,28,32.40
2023,05,14,17,29,32.40
2023,05,14,17,30,32.40
2023,05,14,17,31,32.40
2023,05,14,17,32,32.50
2023,05,14,17,33,32.50
2023,05,14,17,34,32.50
2023,05,14,17,35,32.50
2023,05,14,17,36,32.50
2023,05,14,17,37,32.50
2023,05,14,17,38,32.40
2023,05,14,17,39,32.40
2023,05,14,17,40,32.40
2023,05,14,17,41,32.30
2023,05,14,17,42,32.30
2023,05,14,17,43,32.30
2023,05,14,17,44,32.20
2023,05,14,17,45,32.20
2023,05,14,17,46,32.10
2023,05,14,17,47,32.10
2023,05,14,17,48,32.10
2023,05,14,17,49,32.10
2023,05,14,17,50,32.00
2023,05,14,17,51,32.00
2023,05,14,17,52,32.00
2023,05,14,17,53,32.00
2023,05,14,17,54,32.00
2023,05,14,17,55,31.90
2023,05,14,17,56,31.90
2023,05,14,17,57,31.90
2023,05,14,17,58,31.90
2023,05,14,17,59,31.90
2023,05,14,18,00,31.80
2023,05,14,18,01,31.80
2023,05,14,18,02,31.70
2023,05,14,18,03,31.70
2023,05,14,18,04,31.70
2023,05,14,18,05,31.70
2023,05,14,18,06,31.70
2023,05,14,18,07,31.70
2023,05,14,18,08,31.60
2023,05,14,18,09,31.60
2023,05,14,18,10,31.50
2023,05,14,18,11,31.50
2023,05,14,18,12,31.40
2023,05,14,18,13,31.40
2023,05,14,18,14,31.40
2023,05,14,18,15,31.40
2023,05,14,18,16,31.30
2023,05,14,18,17,31.30
2023,05,14,18,18,31.30
2023,05,14,18,19,31.30
2023,05,14,18,20,31.30
2023,05,14,18,21,31.30
2023,05,14,18,22,31.30
2023,05,14,18,23,31.30
2023,05,14,18,24,31.40
2023,05,14,18,25,31.40
2023,05,14,18,26,31.40
2023,05,14,18,27,31.40
2023,05,14,18,28,31.30
2023,05,14,18,29,31.30
2023,05,14,18,30,31.30
2023,05,14,18,31,31.30
2023,05,14,18,32,31.30
2023,05,14,18,33,31.30
2023,05,14,18,34,31.20
2023,05,14,18,35,31.20
2023,05,14,18,36,31.20
2023,05,14,18,37,31.20
2023,05,14,18,38,31.20
2023,05,14,18,39,31.20
2023,05,14,18,40,31.20
2023,05,14,18,41,31.20
2023,05,14,18,42,31.20
2023,05,14,18,43,31.30
2023,05,14,18,44,31.30
2023,05,14,18,45,31.30
2023,05,14,18,46,31.30
2023,05,14,18,47,31.30
2023,05,14,18,48,31.30
2023,05,14,18,49,31.30
2023,05,14,18,50,31.30
2023,05,14,18,51,31.30
2023,05,14,18,52,31.30
2023,05,14,18,53,31.30
2023,05,14,18,54,31.30
2023,05,14,18,55,31.30
2023,05,14,18,56,31.30
2023,05,14,18,57,31.30
2023,05,14,18,58,31.30
2023,05,14,18,59,31.30
2023,05,14,19,00,31.30
2023,05,14,19,01,31.30
2023,05,14,19,02,31.30
2023,05,14,19,03,31.30
2023,05,14,19,04,31.20
2023,05,14,19,05,31.20
2023,05,14,19,06,31.20
2023,05,14,19,07,31.20
2023,05,14,19,08,31.10
2023,05,14,19,09,31.10
2023,05,14,19,10,31.10
2023,05,14,19,11,31.10
2023,05,14,19,12,31.00
2023,05,14,19,13,31.00
2023,05,14,19,14,30.90
2023,05,14,19,15,30.80
2023,05,14,19,16,30.80
2023,05,14,19,17,30.70
2023,05,14,19,18,30.70
2023,05,14,19,19,30.60
2023,05,14,19,20,30.50
2023,05,14,19,21,30.50
2023,05,14,19,22,30.40
2023,05,14,19,23,30.40
2023,05,14,19,24,30.30
2023,05,14,19,25,30.30
2023,05,14,19,26,30.20
2023,05,14,19,27,30.20
2023,05,14,19,28,30.20
2023,05,14,19,29,30.10
2023,05,14,19,30,30.10
2023,05,14,19,31,30.10
2023,05,14,19,32,30.10
2023,05,14,19,33,30.10
2023,05,14,19,34,30.10
2023,05,14,19,35,30.10
2023,05,14,19,36,30.10
2023,05,14,19,37,30.10
2023,05,14,19,38,30.10
2023,05,14,19,39,30.00
2023,05,14,19,40,30.00
2023,05,14,19,41,29.90
2023,05,14,19,42,29.90
2023,05,14,19,43,29.90
2023,05,14,19,44,29.80
2023,05,14,19,45,29.80
2023,05,14,19,46,29.70
2023,05,14,19,47,29.70
2023,05,14,19,48,29.60
2023,05,14,19,49,29.60
2023,05,14,19,50,29.60
2023,05,14,19,51,29.60
2023,05,14,19,52,29.60
2023,05,14,19,53,29.60
2023,05,14,19,54,29.60
2023,05,14,19,55,29.60
2023,05,14,19,56,29.60
2023,05,14,19,57,29.60
2023,05,14,19,58,29.60
